sat.trackr.live / text

‹ back to catalog

STARLINK-11491 [DTC]

NORAD 62269 · 2024-237C

PAYLOAD ACTIVE UNKNOWN

§ Identity

Operator
Country
US
Launch date
2024-12-08
Launch site
AFETR
Launch vehicle
Mass (kg)
RCS (m²)

Purposes: comms

External: N2YO · Heavens-Above · Gunter

§ Orbital elements

Epoch: 2026-09-21T04:53:12.796512Z

Period
91.66 min
Inclination
42.9977°
Eccentricity
0.0001748
Mean motion
15.71004855 rev/d
Perigee alt
354.8 km
Apogee alt
357.2 km
Semi-major
6,734.2 km
B*
1.4668e-3
RAAN
317.9284°
Arg perigee
205.6216°
Mean anomaly
154.4565°
Rev number
10,380

§ Raw data

STARLINK-11491 [DTC]1 62269U 24237C   26264.20362033  .00193542  00000+0  14668-2 0  99922 62269  42.9977 317.9284 0001748 205.6216 154.4565 15.71004855103809

JSON: /api/v1/satellites/62269 · /tle

For live sub-satellite position, see the globe view (requires WebGL).

§ Visibility from observer

Set your observer location to see the next 7 days of passes ≥ 10°. The values pass through the URL so the page stays shareable.

No JS? Fill the form by hand. The geolocation button needs JavaScript.